GFSSE_sfc_thetae_057.txt.gz
Theta_e
340 349 354 355 353 352 351 351 351 352 351 349 350 351 351 350 348 347 346 345 343 343 342 342 342 343 344 347 347 346 345 345 345 346 347 348 348 347 347 347 348 346 350
340 350 352 355 354 354 352 352 352 353 352 352 352 352 351 350 349 347 345 344 342 341 340 340 340 340 341 344 345 344 344 344 343 344 346 345 345 344 345 344 346 346 349
340 349 352 353 354 354 353 352 353 353 352 352 352 352 350 349 347 345 343 342 341 340 339 336 335 336 337 339 341 340 340 341 342 342 344 340 340 342 342 341 342 344 346
339 348 350 349 352 354 353 352 353 354 354 353 352 351 350 348 346 344 342 341 340 340 338 336 333 330 331 334 337 339 341 340 339 342 338 338 336 340 341 340 340 340 343
340 348 349 348 352 353 353 352 353 352 352 350 349 350 349 347 345 343 342 340 339 338 336 334 331 327 327 332 334 340 341 339 339 338 337 338 336 338 341 338 338 339 340
340 346 347 349 351 352 351 352 351 351 350 349 348 348 348 347 344 342 340 339 337 335 334 332 328 326 326 328 333 338 339 340 340 337 334 339 338 339 338 338 337 337 338
340 346 350 347 350 349 349 350 351 351 350 348 348 348 347 346 344 341 339 337 335 334 332 331 327 324 324 327 331 334 335 335 337 336 337 338 339 340 339 337 336 335 335
340 344 347 342 343 347 348 347 347 348 347 347 347 347 346 345 343 340 337 337 334 333 332 330 326 322 321 324 326 328 327 328 333 334 333 333 336 338 337 335 334 333 333
341 342 343 346 345 336 339 342 344 345 345 346 345 344 343 343 341 339 339 337 334 332 331 328 326 323 318 319 319 318 320 324 329 331 330 330 330 335 334 331 331 331 330
327 335 337 341 343 347 348 337 339 341 341 343 342 341 337 337 335 334 333 335 334 332 330 327 325 321 312 313 313 312 315 320 320 322 324 321 326 330 330 327 327 328 328
316 317 320 326 334 340 343 340 336 336 336 337 337 332 332 341 337 334 330 333 334 332 329 328 324 319 309 309 310 311 313 310 312 314 315 316 321 325 326 324 324 325 326
311 313 314 316 321 329 339 342 346 345 345 344 344 343 343 341 339 333 327 329 331 329 330 327 323 318 321 314 310 313 307 308 308 309 308 311 315 318 320 324 324 324 325
311 313 314 315 316 323 337 341 344 345 344 344 342 343 342 342 337 335 331 331 329 323 328 327 325 325 323 319 314 311 309 309 308 308 306 307 311 314 317 318 324 323 323
311 313 316 317 317 317 333 338 340 341 342 341 341 341 341 341 339 336 332 331 331 328 326 325 324 325 323 319 316 314 312 310 308 308 306 306 307 311 314 316 319 324 324
310 313 315 317 320 318 331 338 338 333 333 332 332 332 333 335 336 336 331 329 329 327 324 323 322 322 322 320 318 317 315 313 310 309 309 306 304 308 311 313 316 319 323
311 311 313 317 320 319 332 326 324 325 324 323 323 327 329 329 328 327 327 326 323 322 320 320 317 315 314 315 318 317 315 314 312 311 310 311 305 303 306 310 313 316 320
309 307 310 317 322 320 317 316 317 318 317 315 316 319 322 323 320 321 318 317 316 318 316 316 312 312 312 311 312 313 315 315 314 313 313 312 311 308 302 306 309 312 315
304 305 311 314 313 311 311 311 313 313 311 310 314 317 317 317 318 315 314 313 314 313 313 310 310 309 309 308 308 310 310 314 315 314 313 311 310 308 310 304 305 307 308
302 304 308 309 307 306 305 305 305 307 308 310 311 312 313 313 314 313 311 309 308 308 308 308 307 310 306 307 305 306 308 310 314 311 306 305 305 305 305 307 304 305 305
302 304 304 306 305 304 303 301 301 302 303 305 307 307 308 309 310 309 308 307 306 305 306 307 306 305 305 306 305 306 310 312 311 308 305 304 304 305 305 305 306 305 306
302 303 304 305 305 305 305 304 304 302 301 299 300 301 302 303 305 306 305 306 306 304 304 304 306 306 305 304 307 306 309 307 306 306 306 305 305 305 304 304 304 305 305
300 301 303 304 308 308 307 305 302 299 297 296 296 296 296 297 297 298 299 299 300 299 298 300 302 303 303 303 298 302 302 303 303 305 305 302 303 303 303 303 303 303 304
299 300 301 303 303 304 302 300 298 297 296 294 293 293 294 294 295 294 295 295 295 294 293 293 294 294 295 298 298 298 295 294 296 303 302 302 301 296 297 297 299 297 301
296 298 299 299 300 301 302 301 300 296 292 291 291 292 292 293 292 293 293 293 293 293 292 292 292 292 292 290 294 293 296 295 290 289 295 294 294 292 293 296 292 296 298
295 295 296 296 296 296 297 297 295 293 292 292 291 291 291 292 292 291 291 291 291 291 291 291 291 291 291 289 289 289 290 290 293 286 284 286 290 291 293 291 291 295 295
293 293 293 293 292 294 295 294 293 292 291 291 290 290 290 290 290 290 289 289 289 289 289 289 290 289 289 289 288 288 287 285 285 284 283 284 285 287 289 290 292 292 294

GFSSE_sfc_thetae_060.txt.gz
Theta_e
340 348 354 355 353 352 352 352 352 353 353 351 351 352 351 349 348 346 345 344 343 343 342 342 343 343 346 348 346 346 345 344 345 347 347 347 347 347 347 347 348 348 350
344 349 352 354 355 354 353 353 353 352 352 351 352 351 350 349 347 345 344 343 341 340 339 339 340 341 343 344 343 343 344 344 344 344 345 344 344 343 344 344 346 346 349
344 351 353 352 354 354 353 353 354 354 354 352 350 350 350 348 345 344 343 342 341 340 338 336 334 335 337 340 341 343 342 341 343 343 343 335 336 342 342 341 342 345 346
344 349 350 349 352 353 353 353 353 353 352 351 349 350 349 347 344 344 342 340 339 338 338 335 331 330 334 336 340 342 341 340 341 341 336 334 335 341 341 340 340 341 342
339 347 349 349 352 352 352 352 352 351 351 351 349 348 348 346 344 342 341 339 337 336 335 333 329 328 330 334 338 340 341 341 341 338 334 334 332 338 340 339 338 338 339
338 347 346 349 351 351 351 351 351 351 350 350 348 348 347 346 343 341 339 337 335 334 333 331 327 327 329 333 336 337 338 338 339 335 337 338 337 340 338 338 336 336 337
335 346 346 347 350 350 350 351 350 349 349 349 347 347 347 345 343 340 339 336 335 333 332 329 325 324 326 329 332 333 333 331 329 330 332 331 334 339 337 336 335 334 334
337 342 346 341 341 345 347 347 347 347 347 346 346 347 346 345 342 339 338 336 334 333 331 329 325 322 322 323 324 325 326 327 329 327 327 325 335 336 334 332 332 332 332
337 339 340 344 342 335 341 340 343 345 345 345 345 345 344 342 340 340 338 336 335 332 331 328 324 317 318 317 316 317 320 322 317 322 321 320 331 333 331 328 328 329 330
317 322 330 335 339 340 343 336 338 340 341 340 341 339 336 336 335 335 333 335 334 332 331 328 324 316 313 312 313 317 318 316 309 311 311 315 325 329 328 326 326 326 328
312 312 315 319 333 336 339 338 336 338 337 335 335 332 330 334 332 331 329 334 334 332 330 328 324 319 312 314 314 315 312 302 303 304 304 316 319 322 325 326 325 325 327
305 307 309 311 314 327 337 338 340 341 340 339 339 335 337 336 333 330 327 329 331 330 330 326 324 323 320 309 306 309 302 301 301 301 303 313 315 318 320 321 325 324 325
304 309 311 311 311 314 331 335 339 340 337 336 336 335 335 333 330 329 327 326 324 323 325 325 321 319 315 311 309 305 304 301 300 301 306 310 311 315 318 319 321 325 325
306 309 312 313 313 311 327 336 335 334 334 331 332 333 334 332 332 330 327 326 323 323 320 321 320 318 315 313 311 309 307 305 303 301 302 309 309 311 314 316 319 321 324
306 309 310 312 314 314 323 335 330 328 328 328 328 327 328 328 329 330 327 326 323 321 318 317 317 314 314 315 313 312 309 306 304 303 302 307 308 308 310 313 316 319 321
307 306 309 315 317 316 326 326 324 322 320 321 322 324 325 327 326 324 323 321 319 319 318 314 313 312 311 311 312 312 310 308 306 305 304 304 310 306 308 311 314 315 317
304 307 312 316 317 316 316 317 317 316 316 315 317 318 319 319 317 317 316 315 315 315 314 312 310 310 310 309 309 310 308 310 309 308 307 306 305 308 307 309 310 311 312
301 305 310 311 309 309 311 312 311 310 311 313 314 314 315 315 315 313 311 310 311 311 310 309 308 309 308 305 303 304 304 306 308 307 302 301 301 301 304 308 308 309 310
301 305 307 306 305 305 305 305 306 307 308 308 308 308 309 309 309 307 305 305 306 306 306 306 303 301 301 300 300 299 301 303 305 302 299 299 299 300 299 306 308 307 308
303 304 306 304 303 302 302 303 303 302 301 301 301 302 303 305 306 304 303 303 303 301 300 300 302 301 298 297 299 301 301 301 300 299 299 299 300 300 299 299 299 301 308
302 303 304 304 304 304 303 302 300 297 296 294 295 296 296 298 299 299 298 299 297 296 295 296 298 298 296 297 296 297 300 299 298 298 298 297 297 296 298 296 298 296 299
300 302 303 305 305 305 303 301 298 293 292 292 292 292 293 293 293 293 292 292 291 290 290 290 290 294 293 292 292 293 292 295 294 298 297 296 292 291 292 291 292 290 294
298 299 301 302 303 300 298 296 293 292 291 289 288 289 290 290 290 290 290 290 289 289 288 287 287 287 286 288 288 290 287 286 288 293 289 289 287 287 288 289 289 289 293
296 298 299 300 299 298 296 294 292 290 287 287 287 287 288 289 288 289 289 288 288 287 286 286 287 285 285 283 286 288 285 284 284 282 284 285 287 286 286 287 287 288 290
294 294 294 294 294 294 293 291 290 288 288 287 287 286 286 286 287 287 286 286 286 286 285 285 284 284 284 283 283 283 283 283 282 279 277 280 283 284 285 286 286 286 289
290 290 290 290 290 291 291 290 288 287 287 286 285 285 284 284 285 285 285 284 284 284 284 283 283 283 283 282 282 282 282 281 279 279 277 277 278 281 284 284 285 287 288

GFSSE_sfc_thetae_063.txt.gz
Theta_e
339 350 353 355 353 353 353 354 354 355 353 352 353 351 350 348 346 344 343 342 341 341 342 342 344 346 345 345 345 345 345 345 346 345 345 345 345 346 347 347 347 347 350
344 351 350 354 354 354 353 353 353 352 353 353 351 351 350 346 345 344 342 342 341 339 338 337 339 341 343 343 344 343 343 343 345 344 341 342 344 343 343 343 346 345 349
347 350 351 352 354 354 353 353 353 353 352 351 349 348 348 345 345 343 341 340 339 339 337 334 333 337 338 341 343 343 342 342 343 341 339 333 335 341 341 340 341 343 347
348 350 350 348 353 354 353 353 353 353 351 350 349 348 347 345 343 341 340 338 337 337 335 332 331 333 336 339 340 342 343 343 342 340 334 334 333 339 340 339 339 340 340
346 349 349 348 352 352 352 352 352 350 350 349 349 347 346 344 342 341 339 336 335 335 332 330 330 332 335 337 338 340 340 339 340 337 333 333 333 336 339 338 336 337 338
343 347 346 348 351 352 350 351 350 350 350 350 348 348 346 344 342 340 337 336 334 333 331 327 328 329 332 334 336 337 334 334 336 333 332 335 334 338 336 336 335 335 336
341 346 347 347 348 349 349 349 349 349 348 347 348 347 346 343 341 339 337 335 334 332 330 326 325 325 327 329 331 331 328 331 328 326 325 327 331 335 334 333 333 333 333
339 343 345 339 343 345 347 347 347 347 346 346 346 346 345 343 341 338 337 335 334 332 330 324 321 321 321 322 323 323 325 324 323 319 319 322 334 333 331 329 330 331 332
328 336 341 342 340 337 341 342 343 345 344 345 345 345 343 341 341 339 337 335 334 332 330 324 318 317 316 317 318 321 320 319 312 311 316 318 330 330 329 328 328 328 330
313 315 319 333 337 339 340 335 337 340 340 341 341 338 335 335 336 334 333 335 334 332 330 325 320 317 316 315 319 318 315 312 304 304 308 314 323 324 327 327 327 328 329
309 308 310 312 329 333 339 337 334 336 336 335 335 331 329 333 333 331 329 333 334 332 329 328 325 318 315 318 318 316 309 299 300 300 305 318 319 322 323 324 327 326 328
302 305 308 309 311 320 333 338 340 338 337 337 336 333 334 332 331 330 327 329 330 329 329 328 326 322 315 306 304 307 300 299 299 300 304 314 315 318 320 322 323 327 326
304 307 310 310 310 310 322 332 339 339 337 336 336 335 336 333 329 328 325 324 321 320 320 320 318 314 311 308 306 304 303 300 299 300 306 313 313 315 317 319 321 323 325
305 307 309 310 311 311 314 330 334 333 332 331 331 332 332 330 330 327 327 323 320 318 316 316 315 314 312 311 310 308 306 303 301 300 302 311 313 315 315 317 318 320 323
305 305 307 310 313 314 315 330 328 326 327 327 327 327 329 330 329 328 326 323 321 319 316 316 312 312 311 312 312 310 308 305 303 302 301 307 313 313 316 318 318 318 318
304 304 308 315 316 317 325 323 321 320 320 321 321 322 323 326 325 324 321 319 317 317 315 313 310 309 308 310 310 308 307 308 307 305 304 304 312 311 313 315 315 316 316
302 304 308 313 314 317 317 317 316 316 317 316 316 317 318 318 317 316 315 313 313 314 313 312 309 309 306 306 305 305 305 306 307 302 300 300 301 307 311 312 313 314 315
301 304 306 310 310 312 312 312 312 312 312 312 312 313 313 313 313 311 310 309 310 310 308 305 306 302 300 299 299 299 301 304 300 299 299 299 299 299 303 309 307 309 313
301 304 304 306 305 306 307 308 308 308 307 307 306 308 309 308 308 306 305 305 305 302 302 302 299 298 295 295 297 298 300 300 298 299 298 298 297 298 296 302 300 301 307
300 303 304 303 303 303 304 303 301 299 299 299 297 299 301 302 302 301 299 298 298 296 296 298 297 295 293 293 298 299 297 297 298 296 296 294 292 293 291 292 291 291 301
300 302 303 302 302 303 302 300 298 295 294 294 294 294 295 296 296 296 294 292 291 290 289 293 296 291 289 291 295 296 295 295 296 294 292 289 289 291 289 290 289 288 291
299 303 304 304 304 304 302 298 295 293 291 290 290 290 291 291 291 291 290 289 288 288 288 287 287 288 287 287 289 291 289 293 291 290 288 287 285 287 287 289 287 288 289
297 303 304 304 303 298 296 294 292 291 289 288 288 288 289 290 289 289 288 288 287 287 286 285 284 285 283 284 285 287 283 281 285 289 285 284 284 284 284 286 286 287 288
297 301 301 300 297 296 296 293 292 289 286 285 286 286 287 288 287 287 287 286 286 285 284 284 284 283 283 281 283 285 282 282 281 279 281 282 283 283 283 284 284 286 288
297 297 297 297 297 295 295 292 289 287 286 286 285 285 285 285 286 286 285 285 284 284 283 282 282 282 282 281 280 281 281 280 280 277 276 278 280 282 282 283 283 284 286
294 294 294 294 293 293 290 289 288 286 285 285 284 284 283 284 283 283 283 283 283 283 282 281 281 281 281 280 280 281 280 279 277 277 276 276 276 279 282 282 281 283 284

GFSSE_sfc_thetae_069.txt.gz
Theta_e
337 344 351 353 353 353 353 352 351 351 351 350 348 345 344 344 343 342 341 339 339 340 342 342 344 342 343 344 344 343 344 341 341 341 342 342 342 343 343 343 345 344 348
342 347 349 352 354 354 353 353 352 352 351 350 348 345 344 343 342 341 340 339 337 336 339 341 342 342 343 343 344 343 342 340 340 340 338 338 337 339 340 339 343 342 347
344 348 348 351 353 353 352 352 353 351 350 350 347 345 343 342 341 340 339 337 336 335 335 338 340 341 341 342 342 343 341 339 339 339 337 328 331 337 338 338 337 339 342
346 348 348 348 351 351 351 352 352 351 350 349 347 344 343 341 340 338 338 336 334 333 334 336 338 339 340 340 341 343 341 339 338 336 331 328 328 336 337 336 336 336 338
344 347 346 347 351 351 352 352 351 351 350 349 347 344 343 341 338 337 336 334 331 331 331 333 335 338 338 337 340 341 337 335 332 329 329 327 326 332 335 335 333 334 334
343 346 343 347 351 351 351 351 350 350 350 348 346 343 342 340 337 336 334 332 329 328 329 330 332 335 332 336 338 336 334 331 327 323 325 328 325 332 333 333 332 331 332
340 344 343 345 347 348 350 350 350 349 349 348 347 342 341 339 337 335 333 332 328 325 325 326 328 329 328 332 334 331 328 325 318 318 319 322 324 331 331 331 332 331 331
338 343 344 339 342 345 347 347 347 348 348 347 346 343 341 339 337 336 334 333 327 323 322 322 325 326 325 326 326 323 319 317 312 311 313 316 331 330 330 330 331 331 331
332 337 341 342 339 337 340 342 344 345 345 345 344 343 341 339 338 336 335 333 328 323 320 320 321 321 321 321 321 318 314 312 303 308 312 315 328 328 330 330 330 330 330
314 318 331 340 337 338 338 334 337 339 340 341 340 337 335 334 335 334 331 333 329 326 323 322 320 319 319 318 316 312 309 307 300 303 307 316 325 326 327 328 329 329 329
308 309 312 328 337 337 338 336 332 334 335 335 335 331 330 334 333 330 328 331 331 329 326 323 320 317 315 315 313 310 305 298 299 302 306 321 322 323 324 326 326 327 329
304 307 308 309 315 327 334 338 337 335 335 336 337 333 334 332 331 330 325 327 328 328 327 323 320 315 309 304 304 306 299 298 299 301 310 322 323 324 324 323 323 323 324
303 307 309 310 310 312 326 334 335 333 334 334 333 332 332 330 329 328 325 323 321 317 315 313 311 309 308 306 305 303 301 300 300 303 313 320 322 324 324 323 322 322 322
304 306 307 309 310 311 313 329 334 332 331 333 333 332 330 328 327 325 323 322 319 317 314 312 310 310 309 308 307 305 303 302 302 304 310 316 318 320 323 323 324 324 323
303 304 306 307 309 311 309 330 330 329 329 328 333 332 330 328 326 325 322 320 319 317 315 312 309 308 307 307 306 306 302 300 299 300 305 310 310 312 317 319 320 321 322
303 303 305 309 312 311 311 325 323 324 324 324 324 331 329 328 326 323 320 318 316 315 313 311 307 305 303 304 304 301 298 298 298 296 296 299 306 305 310 312 314 318 319
302 303 306 308 313 312 320 320 319 319 319 318 318 321 326 327 323 320 317 314 313 313 311 308 304 304 302 302 300 298 298 297 296 295 293 291 292 300 304 307 308 313 315
300 303 305 311 314 314 316 316 315 314 314 314 314 315 318 319 318 316 313 311 310 308 306 303 300 298 297 298 297 295 295 293 291 290 290 290 289 289 294 301 303 307 311
300 302 303 308 312 311 311 310 308 308 308 310 311 311 311 313 312 311 308 306 306 303 300 297 293 294 296 296 296 294 292 290 288 288 287 287 287 287 286 293 296 299 303
299 301 302 307 308 308 304 303 302 302 301 303 304 305 306 305 304 303 302 302 301 296 292 290 291 290 292 294 294 291 290 288 286 284 284 286 285 285 285 285 285 288 298
298 299 302 304 302 304 303 302 302 298 298 298 298 299 299 299 297 297 296 296 295 291 289 288 288 292 286 288 289 288 287 285 284 283 282 282 283 284 284 284 285 286 288
298 300 300 304 304 304 305 299 297 296 293 294 295 294 294 294 293 293 291 289 288 287 286 286 286 284 283 283 291 289 286 288 286 283 282 282 280 282 283 284 284 286 286
297 299 300 304 304 304 297 295 292 292 292 292 291 290 290 290 288 288 287 286 285 285 283 283 283 282 281 281 282 287 281 283 282 285 281 280 280 280 280 282 282 284 284
298 299 300 304 303 297 296 295 294 295 293 290 290 288 288 286 286 286 285 284 283 283 282 282 282 281 281 280 281 282 279 280 278 276 278 279 279 280 278 280 280 282 282
298 299 301 304 297 296 296 296 296 294 289 288 287 286 286 284 284 284 284 283 282 282 281 281 280 281 281 280 280 280 279 278 277 276 274 276 278 278 278 279 279 279 280
297 300 304 299 297 295 295 295 293 289 288 287 286 285 284 282 282 282 282 282 281 281 281 281 281 281 281 280 280 280 278 277 276 275 274 274 275 277 278 278 278 279 278

GFSSE_sfc_thetae_072.txt.gz
Theta_e
334 342 350 351 351 352 351 351 351 351 351 347 346 345 344 343 342 341 339 339 341 342 342 342 344 344 343 344 344 342 341 340 340 339 340 341 341 342 342 342 345 342 347
338 344 348 352 351 352 351 352 350 349 350 347 345 344 343 342 341 340 339 337 337 340 341 342 343 342 343 343 343 341 340 339 338 338 336 338 339 339 339 339 342 340 344
342 345 347 350 352 352 352 352 350 350 350 347 345 343 343 341 340 339 337 336 335 337 339 340 341 341 342 344 343 341 340 338 336 335 333 326 330 337 337 337 337 340 341
344 346 346 348 352 352 351 351 350 350 350 347 344 342 342 339 339 338 336 334 334 335 337 338 340 339 341 344 342 341 339 337 334 333 326 325 327 336 336 335 335 336 336
343 345 345 347 351 351 352 351 351 350 350 348 344 342 340 339 337 336 333 332 331 332 334 337 339 339 341 341 339 337 335 333 331 327 325 324 324 332 335 334 332 332 333
342 344 343 347 350 351 351 350 350 349 348 348 343 342 340 338 336 334 332 329 329 330 332 335 335 337 339 337 336 334 332 329 325 321 322 325 323 333 334 333 332 331 333
339 343 343 345 348 349 349 350 350 349 348 347 344 341 340 338 336 335 331 327 326 326 328 331 331 334 334 332 330 327 325 322 314 314 315 320 325 332 333 332 332 331 331
337 341 342 339 341 344 346 346 348 348 347 346 344 341 339 338 336 335 333 326 324 323 326 328 328 328 328 325 321 319 318 316 311 310 313 316 330 331 332 331 331 331 331
334 338 340 341 338 337 341 342 343 345 345 344 343 342 340 338 337 335 334 327 325 323 322 323 323 323 322 320 317 315 314 314 304 307 312 315 329 329 331 331 331 330 330
320 326 334 338 337 339 338 335 337 339 340 341 340 336 334 334 333 332 330 330 327 326 324 322 321 320 318 316 314 312 311 310 304 307 309 318 326 327 328 328 328 330 332
311 312 319 336 334 335 336 335 332 334 335 335 334 330 329 333 330 328 328 330 330 327 324 321 318 316 315 314 312 310 306 300 305 308 312 325 325 326 326 325 325 325 326
308 308 310 315 326 334 337 338 338 337 336 338 337 333 333 332 330 329 324 326 328 326 324 322 319 314 308 303 302 305 300 301 305 309 316 324 326 326 325 324 324 324 324
306 307 309 310 311 320 329 335 336 332 332 332 331 332 332 330 328 327 324 322 320 315 312 312 310 308 306 304 303 301 301 303 305 309 313 320 323 326 327 326 326 325 324
304 306 308 309 310 310 313 327 334 332 332 333 331 331 328 328 327 325 323 321 318 316 313 312 310 308 307 306 304 301 300 301 303 304 306 313 318 321 322 323 324 324 325
303 305 306 307 308 310 310 315 331 331 331 334 331 329 329 327 325 324 322 320 318 316 313 311 309 306 305 304 301 299 298 297 296 297 300 308 312 313 317 320 321 322 322
302 303 305 307 310 311 311 319 326 327 327 330 332 330 328 328 325 323 320 317 316 314 312 310 308 305 303 300 298 297 295 293 292 290 290 294 304 307 311 315 318 319 319
301 302 304 306 310 310 310 319 321 321 322 322 322 328 328 327 324 321 318 315 312 312 309 306 304 304 301 299 296 294 291 290 289 288 288 288 289 300 304 308 311 312 314
300 301 304 310 309 314 317 317 316 316 316 316 318 321 325 324 322 319 315 313 311 308 305 303 302 300 298 296 292 290 288 288 287 287 286 287 286 286 293 301 304 308 311
299 301 303 306 308 312 312 311 311 311 311 312 313 314 316 318 318 316 312 310 306 304 301 300 298 299 295 292 289 287 285 284 285 286 285 285 285 284 285 294 299 302 304
298 300 302 306 310 309 306 305 305 304 304 306 308 309 310 311 311 310 307 305 301 297 296 297 296 292 293 290 288 286 284 283 283 282 282 284 283 283 284 285 286 289 296
297 299 300 306 308 305 305 304 304 301 300 299 301 303 303 305 307 305 303 299 296 295 295 295 294 293 288 288 286 285 284 282 281 281 280 281 282 282 283 284 285 284 284
297 302 303 306 305 305 305 302 300 299 295 296 296 296 299 299 300 301 299 295 292 292 291 292 292 284 283 283 286 285 282 285 284 281 280 281 279 281 282 283 283 282 281
296 301 303 305 304 303 300 296 294 295 294 293 293 293 292 294 294 295 294 291 287 290 290 286 287 287 282 280 282 288 283 284 282 283 279 279 279 279 279 280 281 281 280
296 301 303 305 304 301 297 298 298 299 297 294 293 290 290 291 290 289 288 286 285 284 285 283 283 282 282 280 280 280 279 281 278 276 278 278 278 278 278 279 279 279 279
296 300 302 305 304 298 298 299 300 299 291 291 289 288 287 287 287 285 284 283 283 282 281 281 280 280 280 279 280 279 278 277 277 276 274 276 277 278 278 278 278 278 278
296 300 301 303 300 297 298 298 298 291 290 288 287 287 286 286 284 282 282 281 281 281 281 280 280 280 280 280 280 279 278 277 276 275 274 274 275 277 277 278 277 277 277

GFSSE_sfc_thetae_075.txt.gz
Theta_e
339 345 349 352 350 350 352 349 349 351 349 346 345 344 343 342 341 339 340 342 342 343 344 344 345 343 345 343 341 340 340 339 339 339 340 340 341 342 343 343 344 344 347
343 347 348 351 352 352 351 351 351 351 349 346 344 343 342 341 340 339 338 338 340 341 343 343 343 343 344 342 341 339 338 337 337 336 335 338 339 338 339 339 341 342 345
343 348 349 350 352 352 353 350 349 351 348 345 343 343 341 340 339 338 337 337 339 339 340 342 341 343 343 342 340 339 338 336 335 334 335 333 333 336 337 336 336 338 341
345 348 349 347 352 352 352 351 351 350 349 344 343 341 340 339 338 336 335 335 336 338 339 340 342 344 342 341 339 338 336 334 333 332 330 331 331 335 335 335 335 336 336
346 348 349 347 351 352 352 351 350 350 349 345 342 341 339 338 335 334 333 333 334 337 338 340 342 341 339 338 337 335 333 331 330 329 330 330 331 332 334 334 333 333 334
346 347 345 347 350 351 351 350 350 349 348 346 341 340 338 336 334 332 330 331 332 335 336 339 341 339 336 335 334 332 329 327 326 327 328 330 330 334 334 333 332 332 333
345 346 347 346 348 350 350 349 349 348 347 345 341 340 338 337 334 330 328 328 329 332 334 336 335 333 330 328 327 326 324 322 321 323 326 329 329 333 334 333 332 332 331
343 345 346 340 342 345 347 347 347 347 346 345 341 340 339 337 335 330 327 325 328 329 331 331 330 327 324 322 322 322 320 318 318 321 325 327 331 333 333 333 332 331 331
341 342 344 345 342 337 340 342 343 344 344 343 342 341 339 337 336 331 330 327 325 325 326 326 325 322 320 319 319 319 319 317 318 320 322 325 330 331 331 331 332 334 334
334 339 341 343 343 344 343 335 337 339 340 340 339 336 333 333 332 330 329 329 326 324 323 322 320 319 318 317 318 317 316 318 320 321 323 324 327 328 328 328 328 328 330
320 326 335 340 341 341 341 337 333 334 335 335 333 330 328 332 330 328 327 328 327 323 321 320 319 318 316 315 315 314 314 316 319 322 324 326 326 327 327 326 326 326 326
319 317 325 332 339 339 338 338 339 339 340 340 336 333 334 331 330 328 325 325 326 324 322 320 317 312 309 308 309 311 312 313 313 314 320 326 328 330 330 328 327 325 326
318 315 316 320 323 336 337 338 338 337 337 340 337 336 333 330 329 326 324 321 318 316 316 314 312 310 309 308 308 309 309 308 308 310 316 322 324 327 328 328 328 328 326
312 315 314 315 317 320 325 334 338 335 338 336 336 334 332 331 328 325 323 320 317 316 314 313 311 310 307 305 306 305 304 304 305 307 310 314 320 322 325 325 324 323 323
311 311 312 313 314 315 317 321 333 334 335 337 335 333 330 328 327 325 322 320 317 316 314 311 309 306 304 303 301 300 298 298 299 300 305 309 315 318 320 321 321 320 320
308 309 310 310 313 314 316 318 329 333 333 334 333 333 330 329 327 324 321 318 317 314 313 310 306 302 300 299 296 295 293 293 294 295 297 303 308 311 313 316 317 318 318
305 306 307 309 313 314 314 317 326 328 328 329 332 332 331 329 328 323 319 317 316 312 310 307 303 301 297 294 293 292 292 291 291 291 291 293 297 304 308 312 313 313 313
303 304 306 309 312 314 314 320 321 324 323 324 327 331 330 329 327 323 318 315 313 309 308 307 301 299 295 292 291 290 290 290 290 289 290 290 291 294 303 305 306 307 308
303 304 305 309 311 315 316 317 317 318 317 317 319 324 327 325 323 321 317 312 311 306 304 303 300 297 291 290 289 289 288 288 288 288 288 289 290 290 293 297 298 299 303
301 303 305 308 310 312 312 311 310 309 309 311 312 314 319 321 320 316 314 309 307 303 301 301 298 295 291 289 287 286 287 287 287 287 287 288 288 288 288 288 288 291 297
300 301 303 307 309 309 309 308 307 306 304 304 306 308 310 313 313 313 310 305 302 301 301 299 296 292 289 289 287 286 286 286 285 286 286 286 286 287 287 286 285 286 287
299 301 303 306 308 308 310 309 307 303 299 300 300 301 304 307 311 309 307 302 300 298 298 297 294 292 290 291 288 288 285 287 285 284 285 285 285 286 285 284 284 284 285
297 300 302 306 307 308 306 300 297 298 297 296 296 297 297 301 303 304 303 300 297 300 298 297 295 293 289 288 291 293 288 288 287 286 283 283 284 284 284 283 283 282 283
297 300 303 306 306 307 300 302 302 302 299 298 297 295 294 296 299 297 295 294 295 298 297 297 295 293 292 289 286 284 286 290 287 281 283 282 283 283 283 283 282 281 282
297 300 303 305 305 305 301 304 304 304 302 297 293 292 291 291 292 293 292 290 291 294 296 294 290 289 293 288 287 284 284 283 283 283 279 280 281 282 283 283 282 281 281
296 300 302 304 304 300 301 301 304 304 294 293 291 291 290 289 288 287 287 286 287 290 291 291 288 289 288 287 286 285 284 284 282 281 280 279 280 281 282 283 282 281 281